Powrót do katalogu

STARLINK-37882

AktywnyŁącznośćVLEO
NORAD 69954·PAYLOAD·🇺🇸 United States

Wystrzelony Jul 9, 2026 z Cape Canaveral Space Force Station

Loading…

Następne Przeloty (najbliższe 24 godziny)

TLE

ŚwieżeSource: CelesTrak SupGP

Epoka: Sep 15, 2026, 02:52 UTC

1 69954C 26157M   26258.11993056  .00067550  00000+0  19952-2 0  2589
2 69954  53.1600 358.7851 0001154  88.5579  75.8165 15.34365502    17

Śledź STARLINK-37882 w czasie rzeczywistym z AllMySat

Download on the App Store